| time (UTC) | temp C | wind direction | speed KPH | gust KPH | rain 1hr cm | rain 24hr cm | rain mn cm | humidity % | barometer mb |
| 20260505054530 | 15 | 218 | 6.4 | 19.3 | 0.00 | 0.00 | 0.00 | 72 | 1013.4 |
| 20260505053106 | 15 | 213 | 6.4 | 17.7 | 0.00 | 0.00 | 0.00 | 71 | 1013.2 |
| 20260505051528 | 15 | 180 | 1.6 | 8.0 | 0.00 | 0.00 | 0.00 | 69 | 1013.2 |
| 20260505040042 | 17 | 226 | 6.4 | 16.1 | 0.00 | 0.00 | 0.00 | 57 | 1012.4 |
| 20260505034530 | 17 | 228 | 4.8 | 14.5 | 0.00 | 0.00 | 0.00 | 54 | 1012.2 |
| 20260505033030 | 17 | 228 | 4.8 | 16.1 | 0.00 | 0.00 | 0.00 | 52 | 1011.9 |
| 20260505031531 | 18 | 211 | 6.4 | 19.3 | 0.00 | 0.00 | 0.00 | 51 | 1011.7 |
| 20260505030032 | 19 | 226 | 4.8 | 14.5 | 0.00 | 0.00 | 0.00 | 49 | 1011.5 |
| 20260505024530 | 20 | 201 | 4.8 | 17.7 | 0.00 | 0.00 | 0.00 | 47 | 1011.4 |
| 20260505023146 | 21 | 201 | 6.4 | 16.1 | 0.00 | 0.00 | 0.00 | 46 | 1011.3 |
| 20260505021531 | 22 | 212 | 3.2 | 9.7 | 0.00 | 0.00 | 0.00 | 45 | 1011.3 |
| 20260505020029 | 22 | 232 | 3.2 | 12.9 | 0.00 | 0.00 | 0.00 | 43 | 1011.2 |
| 20260505014533 | 23 | 242 | 6.4 | 16.1 | 0.00 | 0.00 | 0.00 | 41 | 1011.2 |
| 20260505013031 | 23 | 263 | 6.4 | 17.7 | 0.00 | 0.00 | 0.00 | 39 | 1011.1 |
| 20260505011531 | 25 | 261 | 8.0 | 19.3 | 0.00 | 0.00 | 0.00 | 36 | 1011.0 |
| 20260505010106 | 25 | 256 | 8.0 | 22.5 | 0.00 | 0.00 | 0.00 | 36 | 1011.1 |
| 20260505004529 | 26 | 264 | 8.0 | 22.5 | 0.00 | 0.00 | 0.00 | 35 | 1011.0 |
| 20260505001533 | 26 | 262 | 9.7 | 22.5 | 0.00 | 0.00 | 0.00 | 35 | 1010.8 |
| 20260505000029 | 27 | 265 | 11.3 | 22.5 | 0.00 | 0.00 | 0.00 | 35 | 1010.9 |
| 20260504234531 | 27 | 261 | 9.7 | 25.7 | 0.00 | 0.00 | 0.00 | 35 | 1010.7 |
| 20260504233030 | 27 | 269 | 11.3 | 25.7 | 0.00 | 0.00 | 0.00 | 34 | 1010.8 |
| 20260504231607 | 27 | 266 | 14.5 | 27.4 | 0.00 | 0.00 | 0.00 | 34 | 1010.8 |
| 20260504230031 | 27 | 264 | 12.9 | 25.7 | 0.00 | 0.00 | 0.00 | 34 | 1010.9 |
| 20260504223031 | 27 | 261 | 12.9 | 29.0 | 0.00 | 0.00 | 0.00 | 34 | 1011.1 |
| 20260504221531 | 27 | 268 | 12.9 | 29.0 | 0.00 | 0.00 | 0.00 | 34 | 1011.0 |
| 20260504220104 | 27 | 267 | 11.3 | 25.7 | 0.00 | 0.00 | 0.00 | 34 | 1011.2 |
| 20260504214530 | 26 | 266 | 14.5 | 30.6 | 0.00 | 0.00 | 0.00 | 35 | 1011.2 |
| 20260504213116 | 26 | 259 | 12.9 | 29.0 | 0.00 | 0.00 | 0.00 | 35 | 1011.2 |
| 20260504211533 | 26 | 270 | 12.9 | 29.0 | 0.00 | 0.00 | 0.00 | 35 | 1011.3 |
| 20260504210031 | 26 | 255 | 9.7 | 25.7 | 0.00 | 0.00 | 0.00 | 35 | 1011.3 |
| 20260504204531 | 27 | 265 | 9.7 | 25.7 | 0.00 | 0.00 | 0.00 | 35 | 1011.4 |
| 20260504203105 | 27 | 259 | 8.0 | 27.4 | 0.00 | 0.00 | 0.00 | 34 | 1011.6 |
| 20260504201530 | 26 | 318 | 4.8 | 17.7 | 0.00 | 0.00 | 0.00 | 36 | 1011.7 |
| 20260504200032 | 27 | 12 | 4.8 | 19.3 | 0.00 | 0.00 | 0.00 | 39 | 1011.7 |
| 20260504194530 | 27 | 32 | 6.4 | 12.9 | 0.00 | 0.00 | 0.00 | 40 | 1011.7 |
| 20260504193030 | 26 | 43 | 6.4 | 16.1 | 0.00 | 0.00 | 0.00 | 40 | 1011.7 |
| 20260504191608 | 26 | 54 | 8.0 | 14.5 | 0.00 | 0.00 | 0.00 | 41 | 1011.8 |
| 20260504184531 | 26 | 63 | 8.0 | 17.7 | 0.00 | 0.00 | 0.00 | 42 | 1011.9 |
| 20260504183030 | 26 | 60 | 9.7 | 17.7 | 0.00 | 0.00 | 0.00 | 41 | 1012.0 |
| 20260504180031 | 26 | 33 | 3.2 | 9.7 | 0.00 | 0.00 | 0.00 | 39 | 1012.0 |
| 20260504173030 | 26 | 33 | 4.8 | 11.3 | 0.00 | 0.00 | 0.00 | 38 | 1012.1 |
| 20260504171646 | 26 | 6 | 3.2 | 8.0 | 0.00 | 0.00 | 0.00 | 38 | 1012.1 |
| 20260504081530 | 8 | 175 | 0.0 | 4.8 | 0.00 | 0.00 | 0.00 | 82 | 1012.1 |
| 20260504080144 | 8 | 188 | 0.0 | 3.2 | 0.00 | 0.00 | 0.00 | 80 | 1012.2 |